Time,TemperatureF,DewpointF,PressureIn,WindDirection,WindDirectionDegrees,WindSpeedMPH,WindSpeedGustMPH,Humidity,HourlyPrecipIn,Conditions,Clouds,dailyrainin,SoftwareType,DateUTC
2013-06-04 00:02:00,43.3,30.0,17.73,NW,316,0.0,0.0,25,-99.99,,,-99.99,meteohub,2013-06-04 06:02:00,
2013-06-04 00:07:00,42.8,30.0,17.73,NW,316,0.0,0.0,25,-99.99,,,-99.99,meteohub,2013-06-04 06:07:00,
2013-06-04 00:13:00,42.4,30.0,17.73,NW,316,0.0,0.0,25,-99.99,,,-99.99,meteohub,2013-06-04 06:13:00,
2013-06-04 00:18:00,42.3,30.9,17.73,NW,316,0.0,0.0,26,-99.99,,,-99.99,meteohub,2013-06-04 06:18:00,
2013-06-04 00:23:00,41.9,30.7,17.73,NW,316,0.0,0.0,26,-99.99,,,-99.99,meteohub,2013-06-04 06:23:00,
2013-06-04 00:29:00,42.1,30.7,17.73,NW,316,0.0,0.0,26,-99.99,,,-99.99,meteohub,2013-06-04 06:29:00,
2013-06-04 00:34:00,41.9,30.7,17.73,NW,316,0.0,0.0,26,-99.99,,,-99.99,meteohub,2013-06-04 06:34:00,
2013-06-04 00:39:00,41.7,30.6,17.73,NW,316,0.0,0.0,26,-99.99,,,-99.99,meteohub,2013-06-04 06:39:00,
2013-06-04 00:44:00,41.0,30.6,17.73,NW,316,0.0,0.0,26,-99.99,,,-99.99,meteohub,2013-06-04 06:44:00,
2013-06-04 00:49:00,41.5,30.6,17.73,NW,316,0.0,0.0,26,-99.99,,,-99.99,meteohub,2013-06-04 06:49:00,
2013-06-04 00:54:00,41.4,30.6,17.73,NW,316,0.0,0.0,26,-99.99,,,-99.99,meteohub,2013-06-04 06:54:00,
2013-06-04 01:00:00,41.7,30.4,17.73,WSW,244,0.0,0.0,26,-99.99,,,-99.99,meteohub,2013-06-04 07:00:00,
2013-06-04 01:05:00,41.9,30.4,17.73,WSW,244,0.0,0.0,26,-99.99,,,-99.99,meteohub,2013-06-04 07:05:00,
2013-06-04 01:10:00,41.5,30.4,17.73,WSW,244,0.0,0.0,26,-99.99,,,-99.99,meteohub,2013-06-04 07:10:00,
2013-06-04 01:16:00,41.7,30.4,17.73,WSW,244,0.0,0.0,26,-99.99,,,-99.99,meteohub,2013-06-04 07:16:00,
2013-06-04 01:21:00,41.7,30.4,17.73,WSW,244,0.0,0.0,26,-99.99,,,-99.99,meteohub,2013-06-04 07:21:00,
2013-06-04 01:26:00,42.1,30.4,17.73,WSW,244,0.0,0.0,26,-99.99,,,-99.99,meteohub,2013-06-04 07:26:00,
2013-06-04 01:31:00,42.3,30.2,17.73,WSW,244,0.0,0.0,26,-99.99,,,-99.99,meteohub,2013-06-04 07:31:00,
2013-06-04 01:36:00,42.4,30.2,17.73,WSW,244,0.0,0.0,26,-99.99,,,-99.99,meteohub,2013-06-04 07:36:00,
2013-06-04 01:41:00,42.4,30.0,17.73,WSW,244,0.0,0.0,26,-99.99,,,-99.99,meteohub,2013-06-04 07:41:00,
2013-06-04 01:47:00,42.6,30.0,17.73,WSW,245,0.0,0.0,26,-99.99,,,-99.99,meteohub,2013-06-04 07:47:00,
2013-06-04 01:52:00,42.6,30.0,17.73,WSW,245,0.0,0.0,26,-99.99,,,-99.99,meteohub,2013-06-04 07:52:00,
2013-06-04 01:57:00,42.6,30.0,17.73,WSW,245,0.0,0.0,26,-99.99,,,-99.99,meteohub,2013-06-04 07:57:00,
2013-06-04 02:02:00,42.4,29.8,17.73,WSW,245,0.0,0.0,26,-99.99,,,-99.99,meteohub,2013-06-04 08:02:00,
2013-06-04 02:07:00,42.4,29.8,17.73,WSW,245,0.0,0.0,26,-99.99,,,-99.99,meteohub,2013-06-04 08:07:00,
2013-06-04 02:12:00,42.4,29.8,17.73,WSW,245,0.0,0.0,26,-99.99,,,-99.99,meteohub,2013-06-04 08:12:00,
2013-06-04 02:17:00,42.4,29.8,17.73,WSW,246,0.0,0.0,26,-99.99,,,-99.99,meteohub,2013-06-04 08:17:00,
2013-06-04 02:22:00,42.4,29.8,17.73,WSW,246,0.0,0.0,26,-99.99,,,-99.99,meteohub,2013-06-04 08:22:00,
2013-06-04 02:27:00,42.4,29.7,17.73,NE,43,5.0,0.0,26,-99.99,,,-99.99,meteohub,2013-06-04 08:27:00,
2013-06-04 02:32:00,42.6,29.7,17.73,NE,46,0.0,5.0,26,-99.99,,,-99.99,meteohub,2013-06-04 08:32:00,
2013-06-04 02:37:00,42.6,29.7,17.73,North,353,3.0,6.0,26,-99.99,,,-99.99,meteohub,2013-06-04 08:37:00,
2013-06-04 02:42:00,42.4,29.5,17.73,NNE,29,3.0,6.0,26,-99.99,,,-99.99,meteohub,2013-06-04 08:42:00,
2013-06-04 02:47:00,42.4,29.5,17.73,NNE,22,3.0,6.0,26,-99.99,,,-99.99,meteohub,2013-06-04 08:47:00,
2013-06-04 02:52:00,42.4,29.3,17.73,North,350,0.0,6.0,26,-99.99,,,-99.99,meteohub,2013-06-04 08:52:00,
2013-06-04 02:57:00,42.3,29.3,17.73,NNE,27,0.0,6.0,26,-99.99,,,-99.99,meteohub,2013-06-04 08:57:00,
2013-06-04 03:02:00,42.3,29.3,17.73,WSW,257,3.0,6.0,26,-99.99,,,-99.99,meteohub,2013-06-04 09:02:00,
2013-06-04 03:07:00,42.3,29.3,17.73,West,275,0.0,6.0,26,-99.99,,,-99.99,meteohub,2013-06-04 09:07:00,
2013-06-04 03:13:00,42.1,29.3,17.73,ENE,64,3.0,6.0,26,-99.99,,,-99.99,meteohub,2013-06-04 09:13:00,
2013-06-04 03:18:00,42.1,29.3,17.73,WNW,297,3.0,6.0,26,-99.99,,,-99.99,meteohub,2013-06-04 09:18:00,
2013-06-04 03:23:00,42.1,29.3,17.73,NE,56,3.0,5.0,26,-99.99,,,-99.99,meteohub,2013-06-04 09:23:00,
2013-06-04 03:29:00,41.9,29.3,17.73,West,275,0.0,6.0,26,-99.99,,,-99.99,meteohub,2013-06-04 09:29:00,
2013-06-04 03:34:00,41.7,29.1,17.73,WNW,296,0.0,6.0,26,-99.99,,,-99.99,meteohub,2013-06-04 09:34:00,
2013-06-04 03:39:00,41.7,29.1,17.73,NW,309,6.0,6.0,26,-99.99,,,-99.99,meteohub,2013-06-04 09:39:00,
2013-06-04 03:44:00,41.5,29.1,17.73,WNW,295,3.0,6.0,26,-99.99,,,-99.99,meteohub,2013-06-04 09:44:00,
2013-06-04 03:50:00,41.5,28.9,17.73,WNW,283,0.0,6.0,26,-99.99,,,-99.99,meteohub,2013-06-04 09:50:00,
2013-06-04 03:55:00,41.4,28.9,17.73,West,279,0.0,6.0,26,-99.99,,,-99.99,meteohub,2013-06-04 09:55:00,
2013-06-04 04:00:00,41.2,28.8,17.73,NW,304,4.0,4.0,26,-99.99,,,-99.99,meteohub,2013-06-04 10:00:00,
2013-06-04 04:05:00,41.0,28.8,17.73,NW,304,3.0,4.0,26,-99.99,,,-99.99,meteohub,2013-06-04 10:05:00,
2013-06-04 04:11:00,41.2,28.8,17.73,NW,304,4.0,6.0,26,-99.99,,,-99.99,meteohub,2013-06-04 10:11:00,
2013-06-04 04:16:00,41.2,28.6,17.73,WNW,302,0.0,6.0,26,-99.99,,,-99.99,meteohub,2013-06-04 10:16:00,
2013-06-04 04:21:00,41.2,29.5,17.73,NW,308,0.0,6.0,27,-99.99,,,-99.99,meteohub,2013-06-04 10:21:00,
2013-06-04 04:26:00,41.2,29.5,17.73,NW,311,0.0,6.0,27,-99.99,,,-99.99,meteohub,2013-06-04 10:26:00,
2013-06-04 04:32:00,41.2,29.5,17.73,NW,311,0.0,2.0,27,-99.99,,,-99.99,meteohub,2013-06-04 10:32:00,
2013-06-04 04:37:00,41.2,29.5,17.73,NW,311,0.0,0.0,27,-99.99,,,-99.99,meteohub,2013-06-04 10:37:00,
2013-06-04 04:42:00,41.0,28.6,17.73,West,273,4.0,0.0,26,-99.99,,,-99.99,meteohub,2013-06-04 10:42:00,
2013-06-04 04:47:00,40.8,28.4,17.73,WNW,296,0.0,4.0,26,-99.99,,,-99.99,meteohub,2013-06-04 10:47:00,
2013-06-04 04:52:00,40.6,28.4,17.73,WNW,292,2.0,4.0,26,-99.99,,,-99.99,meteohub,2013-06-04 10:52:00,
2013-06-04 04:57:00,40.8,28.2,17.73,NNE,15,0.0,4.0,26,-99.99,,,-99.99,meteohub,2013-06-04 10:57:00,
2013-06-04 05:02:00,41.0,28.2,17.73,WNW,297,2.0,4.0,26,-99.99,,,-99.99,meteohub,2013-06-04 11:02:00,
2013-06-04 05:07:00,41.0,28.2,17.73,West,277,0.0,4.0,26,-99.99,,,-99.99,meteohub,2013-06-04 11:07:00,
2013-06-04 05:12:00,41.0,28.2,17.73,WNW,291,0.0,4.0,26,-99.99,,,-99.99,meteohub,2013-06-04 11:12:00,
2013-06-04 05:17:00,41.0,28.2,17.73,NW,304,0.0,4.0,26,-99.99,,,-99.99,meteohub,2013-06-04 11:17:00,
2013-06-04 05:22:00,41.2,29.1,17.73,NE,47,4.0,4.0,27,-99.99,,,-99.99,meteohub,2013-06-04 11:22:00,
2013-06-04 05:27:00,41.5,29.1,17.73,WNW,290,4.0,5.0,27,-99.99,,,-99.99,meteohub,2013-06-04 11:27:00,
2013-06-04 05:32:00,41.9,28.9,17.73,North,357,5.0,5.0,27,-99.99,,,-99.99,meteohub,2013-06-04 11:32:00,
2013-06-04 05:37:00,42.1,28.9,17.73,ENE,73,4.0,5.0,27,-99.99,,,-99.99,meteohub,2013-06-04 11:37:00,
2013-06-04 05:43:00,42.1,28.9,17.73,North,10,6.0,6.0,27,-99.99,,,-99.99,meteohub,2013-06-04 11:43:00,
2013-06-04 05:48:00,42.1,28.0,17.73,NNW,334,5.0,6.0,26,-99.99,,,-99.99,meteohub,2013-06-04 11:48:00,
2013-06-04 05:54:00,42.1,28.0,17.73,ENE,76,4.0,6.0,26,-99.99,,,-99.99,meteohub,2013-06-04 11:54:00,
2013-06-04 05:59:00,42.3,28.0,17.73,ENE,67,3.0,6.0,26,-99.99,,,-99.99,meteohub,2013-06-04 11:59:00,
2013-06-04 06:04:00,42.3,28.0,17.73,NE,44,6.0,6.0,26,-99.99,,,-99.99,meteohub,2013-06-04 12:04:00,
2013-06-04 06:09:00,42.4,28.2,17.73,NE,54,4.0,6.0,26,-99.99,,,-99.99,meteohub,2013-06-04 12:09:00,
2013-06-04 06:14:00,42.6,28.6,17.73,North,353,4.0,8.0,26,-99.99,,,-99.99,meteohub,2013-06-04 12:14:00,
2013-06-04 06:20:00,42.6,28.8,17.73,ENE,71,2.0,8.0,26,-99.99,,,-99.99,meteohub,2013-06-04 12:20:00,
2013-06-04 06:25:00,42.6,29.1,17.73,NE,51,5.0,9.0,26,-99.99,,,-99.99,meteohub,2013-06-04 12:25:00,
2013-06-04 06:30:00,42.6,29.3,17.73,NE,42,5.0,9.0,26,-99.99,,,-99.99,meteohub,2013-06-04 12:30:00,
2013-06-04 06:36:00,42.6,29.3,17.73,NNW,337,6.0,8.0,26,-99.99,,,-99.99,meteohub,2013-06-04 12:36:00,
2013-06-04 06:41:00,42.8,29.7,17.73,North,349,5.0,8.0,26,-99.99,,,-99.99,meteohub,2013-06-04 12:41:00,
2013-06-04 06:46:00,42.8,29.8,17.73,WNW,297,0.0,6.0,26,-99.99,,,-99.99,meteohub,2013-06-04 12:46:00,
2013-06-04 06:51:00,42.8,30.2,17.73,WNW,300,4.0,6.0,26,-99.99,,,-99.99,meteohub,2013-06-04 12:51:00,
2013-06-04 06:57:00,43.0,29.3,17.73,WNW,296,3.0,5.0,25,-99.99,,,-99.99,meteohub,2013-06-04 12:57:00,
2013-06-04 07:02:00,43.2,29.7,17.73,WNW,301,0.0,5.0,25,-99.99,,,-99.99,meteohub,2013-06-04 13:02:00,
2013-06-04 07:07:00,43.5,29.8,17.73,WNW,288,3.0,5.0,25,-99.99,,,-99.99,meteohub,2013-06-04 13:07:00,
2013-06-04 07:12:00,43.9,30.0,17.73,WNW,283,4.0,4.0,25,-99.99,,,-99.99,meteohub,2013-06-04 13:12:00,
2013-06-04 07:17:00,44.4,30.2,17.73,NW,304,0.0,4.0,25,-99.99,,,-99.99,meteohub,2013-06-04 13:17:00,
2013-06-04 07:22:00,45.0,30.6,17.73,NNE,12,0.0,4.0,25,-99.99,,,-99.99,meteohub,2013-06-04 13:22:00,
2013-06-04 07:27:00,45.3,30.7,17.73,North,11,0.0,4.0,25,-99.99,,,-99.99,meteohub,2013-06-04 13:27:00,
2013-06-04 07:33:00,45.7,31.1,17.73,NNE,25,0.0,0.0,25,-99.99,,,-99.99,meteohub,2013-06-04 13:33:00,
2013-06-04 07:38:00,46.0,31.1,17.73,ENE,73,0.0,0.0,25,-99.99,,,-99.99,meteohub,2013-06-04 13:38:00,
2013-06-04 07:43:00,46.2,31.5,17.73,ENE,73,0.0,0.0,25,-99.99,,,-99.99,meteohub,2013-06-04 13:43:00,
2013-06-04 07:48:00,46.8,31.8,17.73,ENE,73,0.0,0.0,25,-99.99,,,-99.99,meteohub,2013-06-04 13:48:00,
2013-06-04 07:53:00,47.1,32.0,17.73,ENE,73,0.0,0.0,25,-99.99,,,-99.99,meteohub,2013-06-04 13:53:00,
2013-06-04 07:58:00,47.5,32.2,17.73,ENE,72,0.0,0.0,25,-99.99,,,-99.99,meteohub,2013-06-04 13:58:00,
2013-06-04 08:04:00,47.8,31.5,17.73,NE,52,6.0,0.0,24,-99.99,,,-99.99,meteohub,2013-06-04 14:04:00,
2013-06-04 08:09:00,48.2,31.5,17.73,NNW,348,4.0,8.0,24,-99.99,,,-99.99,meteohub,2013-06-04 14:09:00,
2013-06-04 08:14:00,48.4,31.5,17.73,East,84,3.0,8.0,24,-99.99,,,-99.99,meteohub,2013-06-04 14:14:00,
2013-06-04 08:19:00,48.7,31.5,17.73,ENE,61,4.0,8.0,24,-99.99,,,-99.99,meteohub,2013-06-04 14:19:00,
2013-06-04 08:24:00,49.1,31.5,17.73,NE,47,8.0,8.0,24,-99.99,,,-99.99,meteohub,2013-06-04 14:24:00,
2013-06-04 08:30:00,49.5,32.2,17.73,NE,50,9.0,11.0,25,-99.99,,,-99.99,meteohub,2013-06-04 14:30:00,
2013-06-04 08:35:00,49.8,32.0,17.73,NE,56,4.0,11.0,25,-99.99,,,-99.99,meteohub,2013-06-04 14:35:00,
2013-06-04 08:40:00,50.4,32.0,17.73,NE,41,4.0,11.0,25,-99.99,,,-99.99,meteohub,2013-06-04 14:40:00,
2013-06-04 08:45:00,50.5,32.0,17.73,ENE,69,6.0,10.0,25,-99.99,,,-99.99,meteohub,2013-06-04 14:45:00,
2013-06-04 08:51:00,50.7,31.8,17.73,North,353,4.0,9.0,25,-99.99,,,-99.99,meteohub,2013-06-04 14:51:00,
2013-06-04 08:56:00,51.3,31.8,17.73,ENE,57,9.0,9.0,25,-99.99,,,-99.99,meteohub,2013-06-04 14:56:00,
2013-06-04 09:01:00,51.6,31.8,17.73,NE,48,8.0,13.0,25,-99.99,,,-99.99,meteohub,2013-06-04 15:01:00,
2013-06-04 09:06:00,52.2,31.8,17.73,NE,43,11.0,13.0,25,-99.99,,,-99.99,meteohub,2013-06-04 15:06:00,
2013-06-04 09:12:00,52.3,31.8,17.73,NE,53,8.0,13.0,25,-99.99,,,-99.99,meteohub,2013-06-04 15:12:00,
2013-06-04 09:17:00,52.3,31.8,17.73,NNE,19,4.0,11.0,25,-99.99,,,-99.99,meteohub,2013-06-04 15:17:00,
2013-06-04 09:22:00,52.5,31.6,17.73,NE,43,9.0,11.0,25,-99.99,,,-99.99,meteohub,2013-06-04 15:22:00,
2013-06-04 09:27:00,53.1,30.6,17.73,NE,53,4.0,11.0,24,-99.99,,,-99.99,meteohub,2013-06-04 15:27:00,
2013-06-04 09:32:00,53.2,30.6,17.73,NE,48,8.0,11.0,24,-99.99,,,-99.99,meteohub,2013-06-04 15:32:00,
2013-06-04 09:38:00,53.8,31.5,17.73,NNE,19,3.0,13.0,25,-99.99,,,-99.99,meteohub,2013-06-04 15:38:00,
2013-06-04 09:43:00,54.1,31.5,17.73,NE,37,6.0,13.0,25,-99.99,,,-99.99,meteohub,2013-06-04 15:43:00,
2013-06-04 09:48:00,54.7,31.3,17.73,ENE,66,6.0,13.0,25,-99.99,,,-99.99,meteohub,2013-06-04 15:48:00,
2013-06-04 09:54:00,55.0,31.3,17.73,ENE,65,4.0,13.0,25,-99.99,,,-99.99,meteohub,2013-06-04 15:54:00,
2013-06-04 09:59:00,55.6,31.1,17.73,NNE,25,0.0,13.0,25,-99.99,,,-99.99,meteohub,2013-06-04 15:59:00,
2013-06-04 10:04:00,55.9,31.1,17.73,ENE,60,6.0,10.0,25,-99.99,,,-99.99,meteohub,2013-06-04 16:04:00,
2013-06-04 10:09:00,56.3,31.1,17.73,ENE,78,3.0,10.0,25,-99.99,,,-99.99,meteohub,2013-06-04 16:09:00,
2013-06-04 10:15:00,56.7,31.1,17.73,ENE,57,5.0,10.0,25,-99.99,,,-99.99,meteohub,2013-06-04 16:15:00,
2013-06-04 10:20:00,56.5,30.9,17.73,NE,51,5.0,8.0,25,-99.99,,,-99.99,meteohub,2013-06-04 16:20:00,
2013-06-04 10:25:00,57.7,30.9,17.73,NE,38,6.0,10.0,25,-99.99,,,-99.99,meteohub,2013-06-04 16:25:00,
2013-06-04 10:30:00,58.5,30.9,17.73,NE,42,6.0,10.0,25,-99.99,,,-99.99,meteohub,2013-06-04 16:30:00,
2013-06-04 10:35:00,58.6,30.9,17.73,NNE,20,4.0,10.0,25,-99.99,,,-99.99,meteohub,2013-06-04 16:35:00,
2013-06-04 10:41:00,58.6,30.7,17.73,ESE,102,5.0,10.0,25,-99.99,,,-99.99,meteohub,2013-06-04 16:41:00,
2013-06-04 10:46:00,59.5,30.7,17.73,NE,48,0.0,11.0,25,-99.99,,,-99.99,meteohub,2013-06-04 16:46:00,
2013-06-04 10:51:00,60.1,30.7,17.73,WNW,284,0.0,11.0,25,-99.99,,,-99.99,meteohub,2013-06-04 16:51:00,
2013-06-04 10:57:00,60.8,30.7,17.73,WNW,298,4.0,11.0,25,-99.99,,,-99.99,meteohub,2013-06-04 16:57:00,
2013-06-04 11:02:00,61.0,30.7,17.73,ENE,69,5.0,8.0,25,-99.99,,,-99.99,meteohub,2013-06-04 17:02:00,
2013-06-04 11:07:00,60.1,30.7,17.73,WSW,248,3.0,8.0,25,-99.99,,,-99.99,meteohub,2013-06-04 17:07:00,
2013-06-04 11:12:00,61.0,30.7,17.73,WNW,299,3.0,8.0,25,-99.99,,,-99.99,meteohub,2013-06-04 17:12:00,
2013-06-04 11:17:00,61.7,30.7,17.73,WSW,251,0.0,7.0,25,-99.99,,,-99.99,meteohub,2013-06-04 17:17:00,
2013-06-04 11:22:00,61.9,30.7,17.73,WSW,249,3.0,7.0,25,-99.99,,,-99.99,meteohub,2013-06-04 17:22:00,
2013-06-04 11:27:00,61.2,30.7,17.73,ENE,59,8.0,8.0,25,-99.99,,,-99.99,meteohub,2013-06-04 17:27:00,
2013-06-04 11:32:00,61.9,30.7,17.73,NE,37,8.0,11.0,25,-99.99,,,-99.99,meteohub,2013-06-04 17:32:00,
2013-06-04 11:37:00,61.0,30.6,17.73,ENE,63,6.0,12.0,25,-99.99,,,-99.99,meteohub,2013-06-04 17:37:00,
2013-06-04 11:42:00,60.1,30.6,17.73,NNW,343,4.0,12.0,25,-99.99,,,-99.99,meteohub,2013-06-04 17:42:00,
2013-06-04 11:47:00,60.4,30.6,17.73,ENE,78,3.0,9.0,25,-99.99,,,-99.99,meteohub,2013-06-04 17:47:00,
2013-06-04 11:52:00,59.4,30.4,17.73,SE,143,0.0,9.0,25,-99.99,,,-99.99,meteohub,2013-06-04 17:52:00,
2013-06-04 11:57:00,59.5,30.4,17.73,NW,309,8.0,9.0,25,-99.99,,,-99.99,meteohub,2013-06-04 17:57:00,
2013-06-04 12:03:00,59.7,30.4,17.73,NW,308,3.0,8.0,25,-99.99,,,-99.99,meteohub,2013-06-04 18:03:00,
2013-06-04 12:08:00,59.5,30.2,17.73,NW,322,3.0,8.0,25,-99.99,,,-99.99,meteohub,2013-06-04 18:08:00,
2013-06-04 12:13:00,59.2,30.2,17.73,NW,314,3.0,8.0,25,-99.99,,,-99.99,meteohub,2013-06-04 18:13:00,
2013-06-04 12:18:00,59.4,30.2,17.73,NE,48,3.0,6.0,25,-99.99,,,-99.99,meteohub,2013-06-04 18:18:00,
2013-06-04 12:24:00,60.8,30.2,17.73,WNW,293,2.0,6.0,25,-99.99,,,-99.99,meteohub,2013-06-04 18:24:00,
2013-06-04 12:29:00,61.7,30.2,17.73,NE,52,5.0,5.0,25,-99.99,,,-99.99,meteohub,2013-06-04 18:29:00,
2013-06-04 12:34:00,61.3,30.2,17.73,East,96,0.0,6.0,25,-99.99,,,-99.99,meteohub,2013-06-04 18:34:00,
2013-06-04 12:39:00,59.5,30.2,17.73,North,5,4.0,6.0,25,-99.99,,,-99.99,meteohub,2013-06-04 18:39:00,
2013-06-04 12:44:00,60.6,30.2,17.73,WNW,290,3.0,6.0,25,-99.99,,,-99.99,meteohub,2013-06-04 18:44:00,
2013-06-04 12:49:00,62.2,30.2,17.73,SW,236,3.0,6.0,25,-99.99,,,-99.99,meteohub,2013-06-04 18:49:00,
2013-06-04 12:54:00,61.7,30.2,17.73,NE,41,3.0,6.0,25,-99.99,,,-99.99,meteohub,2013-06-04 18:54:00,
2013-06-04 12:59:00,63.1,30.2,17.73,WSW,257,0.0,6.0,25,-99.99,,,-99.99,meteohub,2013-06-04 18:59:00,
2013-06-04 13:04:00,61.9,30.2,17.73,NNW,329,0.0,6.0,25,-99.99,,,-99.99,meteohub,2013-06-04 19:04:00,
2013-06-04 13:10:00,59.9,30.2,17.73,ENE,60,3.0,6.0,25,-99.99,,,-99.99,meteohub,2013-06-04 19:10:00,
2013-06-04 13:15:00,59.4,30.2,17.73,NW,307,0.0,6.0,25,-99.99,,,-99.99,meteohub,2013-06-04 19:15:00,
2013-06-04 13:20:00,59.5,30.2,17.73,NNE,22,0.0,6.0,25,-99.99,,,-99.99,meteohub,2013-06-04 19:20:00,
2013-06-04 13:25:00,59.4,30.2,17.73,ENE,64,3.0,6.0,25,-99.99,,,-99.99,meteohub,2013-06-04 19:25:00,
2013-06-04 13:31:00,60.6,30.2,17.73,ENE,58,2.0,6.0,25,-99.99,,,-99.99,meteohub,2013-06-04 19:31:00,
2013-06-04 13:37:00,63.9,30.2,17.73,WNW,286,0.0,6.0,25,-99.99,,,-99.99,meteohub,2013-06-04 19:37:00,
2013-06-04 13:42:00,65.1,30.2,17.73,WNW,285,4.0,6.0,25,-99.99,,,-99.99,meteohub,2013-06-04 19:42:00,
2013-06-04 13:47:00,65.7,30.2,17.73,West,260,7.0,9.0,25,-99.99,,,-99.99,meteohub,2013-06-04 19:47:00,
2013-06-04 13:52:00,66.6,30.2,17.73,SW,230,3.0,9.0,25,-99.99,,,-99.99,meteohub,2013-06-04 19:52:00,
2013-06-04 13:57:00,66.2,30.2,17.73,SW,235,5.0,10.0,25,-99.99,,,-99.99,meteohub,2013-06-04 19:57:00,
2013-06-04 14:02:00,65.5,30.2,17.73,WNW,297,5.0,10.0,25,-99.99,,,-99.99,meteohub,2013-06-04 20:02:00,
2013-06-04 14:07:00,64.4,30.2,17.73,NW,314,8.0,10.0,25,-99.99,,,-99.99,meteohub,2013-06-04 20:07:00,
2013-06-04 14:12:00,63.9,30.2,17.73,WSW,251,9.0,12.0,25,-99.99,,,-99.99,meteohub,2013-06-04 20:12:00,
2013-06-04 14:17:00,62.4,30.2,17.73,WNW,301,9.0,15.0,25,-99.99,,,-99.99,meteohub,2013-06-04 20:17:00,
2013-06-04 14:22:00,61.9,30.2,17.73,WNW,303,5.0,15.0,25,-99.99,,,-99.99,meteohub,2013-06-04 20:22:00,
2013-06-04 14:27:00,62.2,30.2,17.73,WNW,299,6.0,15.0,25,-99.99,,,-99.99,meteohub,2013-06-04 20:27:00,
2013-06-04 14:32:00,63.1,30.2,17.73,NW,314,8.0,10.0,25,-99.99,,,-99.99,meteohub,2013-06-04 20:32:00,
2013-06-04 14:37:00,64.9,30.2,17.73,NW,320,13.0,13.0,25,-99.99,,,-99.99,meteohub,2013-06-04 20:37:00,
2013-06-04 14:43:00,65.7,30.4,17.73,WNW,297,10.0,14.0,25,-99.99,,,-99.99,meteohub,2013-06-04 20:43:00,
2013-06-04 14:48:00,65.7,30.4,17.73,WNW,303,6.0,14.0,25,-99.99,,,-99.99,meteohub,2013-06-04 20:48:00,
2013-06-04 14:53:00,66.7,30.4,17.73,West,280,4.0,14.0,25,-99.99,,,-99.99,meteohub,2013-06-04 20:53:00,
2013-06-04 14:58:00,65.8,30.2,17.73,West,279,6.0,13.0,25,-99.99,,,-99.99,meteohub,2013-06-04 20:58:00,
2013-06-04 15:03:00,64.6,30.2,17.73,WNW,282,2.0,11.0,25,-99.99,,,-99.99,meteohub,2013-06-04 21:03:00,
2013-06-04 15:09:00,64.6,30.2,17.73,WNW,299,6.0,8.0,25,-99.99,,,-99.99,meteohub,2013-06-04 21:09:00,
2013-06-04 15:14:00,65.1,30.2,17.73,WNW,294,8.0,10.0,25,-99.99,,,-99.99,meteohub,2013-06-04 21:14:00,
2013-06-04 15:19:00,66.9,30.2,17.73,NNW,329,4.0,12.0,25,-99.99,,,-99.99,meteohub,2013-06-04 21:19:00,
2013-06-04 15:24:00,67.3,30.2,17.73,WNW,301,8.0,12.0,25,-99.99,,,-99.99,meteohub,2013-06-04 21:24:00,
2013-06-04 15:29:00,67.1,30.2,17.73,WNW,300,6.0,11.0,25,-99.99,,,-99.99,meteohub,2013-06-04 21:29:00,
2013-06-04 15:35:00,64.8,30.2,17.73,NNW,345,6.0,11.0,25,-99.99,,,-99.99,meteohub,2013-06-04 21:35:00,
2013-06-04 15:40:00,63.9,30.2,17.73,WNW,292,8.0,13.0,25,-99.99,,,-99.99,meteohub,2013-06-04 21:40:00,
2013-06-04 15:45:00,64.9,30.2,17.73,NW,307,8.0,13.0,25,-99.99,,,-99.99,meteohub,2013-06-04 21:45:00,
2013-06-04 15:50:00,66.4,30.2,17.73,NW,308,9.0,10.0,25,-99.99,,,-99.99,meteohub,2013-06-04 21:50:00,
2013-06-04 15:56:00,66.2,30.2,17.73,NW,305,9.0,10.0,25,-99.99,,,-99.99,meteohub,2013-06-04 21:56:00,
2013-06-04 16:01:00,65.8,30.2,17.73,West,280,6.0,10.0,25,-99.99,,,-99.99,meteohub,2013-06-04 22:01:00,
2013-06-04 16:06:00,66.0,30.2,17.73,NW,316,7.0,11.0,25,-99.99,,,-99.99,meteohub,2013-06-04 22:06:00,
2013-06-04 16:11:00,66.4,30.4,17.73,WNW,290,8.0,12.0,25,-99.99,,,-99.99,meteohub,2013-06-04 22:11:00,
2013-06-04 16:17:00,66.6,30.4,17.73,WNW,294,11.0,12.0,25,-99.99,,,-99.99,meteohub,2013-06-04 22:17:00,
2013-06-04 16:22:00,66.7,30.4,17.73,WNW,284,14.0,14.0,25,-99.99,,,-99.99,meteohub,2013-06-04 22:22:00,
2013-06-04 16:27:00,66.7,29.5,17.73,NW,311,15.0,15.0,24,-99.99,,,-99.99,meteohub,2013-06-04 22:27:00,
2013-06-04 16:32:00,65.5,29.5,17.73,WNW,292,13.0,15.0,24,-99.99,,,-99.99,meteohub,2013-06-04 22:32:00,
2013-06-04 16:37:00,65.5,29.5,17.73,NW,319,11.0,15.0,24,-99.99,,,-99.99,meteohub,2013-06-04 22:37:00,
2013-06-04 16:42:00,64.9,29.5,17.73,NW,305,9.0,15.0,24,-99.99,,,-99.99,meteohub,2013-06-04 22:42:00,
2013-06-04 16:47:00,65.3,29.5,17.73,NW,313,14.0,15.0,24,-99.99,,,-99.99,meteohub,2013-06-04 22:47:00,
2013-06-04 16:52:00,64.4,29.3,17.73,WNW,297,8.0,15.0,24,-99.99,,,-99.99,meteohub,2013-06-04 22:52:00,
2013-06-04 16:57:00,63.3,29.3,17.73,WNW,301,15.0,15.0,24,-99.99,,,-99.99,meteohub,2013-06-04 22:57:00,
2013-06-04 17:02:00,62.4,29.3,17.73,NW,307,11.0,15.0,24,-99.99,,,-99.99,meteohub,2013-06-04 23:02:00,
2013-06-04 17:07:00,61.7,29.3,17.73,NW,313,12.0,17.0,24,-99.99,,,-99.99,meteohub,2013-06-04 23:07:00,
2013-06-04 17:12:00,61.5,29.3,17.73,NW,308,12.0,17.0,24,-99.99,,,-99.99,meteohub,2013-06-04 23:12:00,
2013-06-04 17:17:00,61.0,29.3,17.73,NW,307,9.0,17.0,24,-99.99,,,-99.99,meteohub,2013-06-04 23:17:00,
2013-06-04 17:22:00,62.1,29.3,17.73,WNW,302,11.0,15.0,24,-99.99,,,-99.99,meteohub,2013-06-04 23:22:00,
2013-06-04 17:27:00,61.9,29.3,17.73,WNW,296,6.0,15.0,24,-99.99,,,-99.99,meteohub,2013-06-04 23:27:00,
2013-06-04 17:33:00,60.8,29.3,17.73,WNW,291,4.0,15.0,24,-99.99,,,-99.99,meteohub,2013-06-04 23:33:00,
2013-06-04 17:38:00,60.4,29.3,17.73,NW,326,0.0,15.0,24,-99.99,,,-99.99,meteohub,2013-06-04 23:38:00,
2013-06-04 17:43:00,61.5,29.3,17.73,WNW,286,5.0,11.0,24,-99.99,,,-99.99,meteohub,2013-06-04 23:43:00,
2013-06-04 17:48:00,61.5,29.3,17.73,SE,132,10.0,10.0,24,-99.99,,,-99.99,meteohub,2013-06-04 23:48:00,
2013-06-04 17:53:00,61.2,29.1,17.73,NW,307,4.0,10.0,24,-99.99,,,-99.99,meteohub,2013-06-04 23:53:00,
2013-06-04 17:58:00,61.9,29.1,17.73,West,264,4.0,10.0,24,-99.99,,,-99.99,meteohub,2013-06-04 23:58:00,
2013-06-04 18:03:00,61.7,29.1,17.73,East,81,4.0,10.0,24,-99.99,,,-99.99,meteohub,2013-06-05 00:03:00,
2013-06-04 18:09:00,62.2,29.3,17.73,West,270,8.0,12.0,24,-99.99,,,-99.99,meteohub,2013-06-05 00:09:00,
2013-06-04 18:14:00,62.4,29.3,17.73,NNW,344,8.0,12.0,24,-99.99,,,-99.99,meteohub,2013-06-05 00:14:00,
2013-06-04 18:19:00,61.7,29.3,17.73,WNW,300,3.0,12.0,24,-99.99,,,-99.99,meteohub,2013-06-05 00:19:00,
2013-06-04 18:24:00,62.6,29.3,17.73,NW,311,7.0,11.0,24,-99.99,,,-99.99,meteohub,2013-06-05 00:24:00,
2013-06-04 18:29:00,64.2,29.3,17.73,NW,306,6.0,10.0,24,-99.99,,,-99.99,meteohub,2013-06-05 00:29:00,
2013-06-04 18:35:00,65.1,29.3,17.73,WNW,302,6.0,11.0,24,-99.99,,,-99.99,meteohub,2013-06-05 00:35:00,
2013-06-04 18:40:00,65.7,29.3,17.73,WNW,284,6.0,11.0,24,-99.99,,,-99.99,meteohub,2013-06-05 00:40:00,
2013-06-04 18:45:00,65.3,29.3,17.73,WNW,287,8.0,9.0,24,-99.99,,,-99.99,meteohub,2013-06-05 00:45:00,
2013-06-04 18:50:00,64.8,29.3,17.73,NW,309,6.0,11.0,24,-99.99,,,-99.99,meteohub,2013-06-05 00:50:00,
2013-06-04 18:55:00,63.1,29.3,17.73,NNW,327,10.0,13.0,24,-99.99,,,-99.99,meteohub,2013-06-05 00:55:00,
2013-06-04 19:00:00,62.1,29.1,17.73,NNW,329,8.0,13.0,24,-99.99,,,-99.99,meteohub,2013-06-05 01:00:00,
2013-06-04 19:05:00,61.3,29.1,17.73,ESE,117,6.0,11.0,24,-99.99,,,-99.99,meteohub,2013-06-05 01:05:00,
2013-06-04 19:11:00,61.2,29.3,17.73,WNW,287,6.0,11.0,24,-99.99,,,-99.99,meteohub,2013-06-05 01:11:00,
2013-06-04 19:16:00,60.8,29.3,17.73,WNW,288,8.0,13.0,24,-99.99,,,-99.99,meteohub,2013-06-05 01:16:00,
2013-06-04 19:21:00,60.1,29.3,17.73,ENE,69,5.0,13.0,24,-99.99,,,-99.99,meteohub,2013-06-05 01:21:00,
2013-06-04 19:27:00,59.2,29.3,17.73,South,171,4.0,13.0,24,-99.99,,,-99.99,meteohub,2013-06-05 01:27:00,
2013-06-04 19:32:00,58.3,29.3,17.73,ENE,58,7.0,8.0,24,-99.99,,,-99.99,meteohub,2013-06-05 01:32:00,
2013-06-04 19:37:00,57.2,29.3,17.73,NE,46,5.0,9.0,24,-99.99,,,-99.99,meteohub,2013-06-05 01:37:00,
2013-06-04 19:42:00,56.8,29.3,17.73,West,280,6.0,10.0,24,-99.99,,,-99.99,meteohub,2013-06-05 01:42:00,
2013-06-04 19:47:00,56.7,29.1,17.73,NNE,24,7.0,10.0,24,-99.99,,,-99.99,meteohub,2013-06-05 01:47:00,
2013-06-04 19:52:00,56.5,29.1,17.73,WNW,285,4.0,10.0,24,-99.99,,,-99.99,meteohub,2013-06-05 01:52:00,
2013-06-04 19:57:00,55.9,29.1,17.73,WNW,300,3.0,9.0,24,-99.99,,,-99.99,meteohub,2013-06-05 01:57:00,
2013-06-04 20:02:00,55.6,29.1,17.73,NW,309,7.0,9.0,24,-99.99,,,-99.99,meteohub,2013-06-05 02:02:00,
2013-06-04 20:07:00,54.9,29.1,17.73,NW,304,3.0,8.0,24,-99.99,,,-99.99,meteohub,2013-06-05 02:07:00,
2013-06-04 20:12:00,54.5,28.9,17.73,North,357,4.0,8.0,24,-99.99,,,-99.99,meteohub,2013-06-05 02:12:00,
2013-06-04 20:18:00,54.1,28.9,17.73,WNW,297,4.0,8.0,24,-99.99,,,-99.99,meteohub,2013-06-05 02:18:00,
2013-06-04 20:23:00,54.1,28.9,17.73,WNW,288,7.0,7.0,24,-99.99,,,-99.99,meteohub,2013-06-05 02:23:00,
2013-06-04 20:28:00,53.8,28.9,17.73,NW,312,5.0,8.0,24,-99.99,,,-99.99,meteohub,2013-06-05 02:28:00,
2013-06-04 20:33:00,53.6,28.9,17.73,NW,306,3.0,8.0,24,-99.99,,,-99.99,meteohub,2013-06-05 02:33:00,
2013-06-04 20:39:00,53.1,28.9,17.73,WNW,298,6.0,8.0,24,-99.99,,,-99.99,meteohub,2013-06-05 02:39:00,
2013-06-04 20:44:00,52.9,28.9,17.73,NW,304,5.0,8.0,24,-99.99,,,-99.99,meteohub,2013-06-05 02:44:00,
2013-06-04 20:49:00,52.2,28.9,17.73,NNW,336,6.0,8.0,24,-99.99,,,-99.99,meteohub,2013-06-05 02:49:00,
2013-06-04 20:54:00,52.0,28.9,17.73,WSW,254,5.0,8.0,24,-99.99,,,-99.99,meteohub,2013-06-05 02:54:00,
2013-06-04 20:59:00,51.8,28.8,17.73,SSW,213,5.0,8.0,24,-99.99,,,-99.99,meteohub,2013-06-05 02:59:00,
2013-06-04 21:05:00,51.6,28.8,17.73,North,9,6.0,8.0,24,-99.99,,,-99.99,meteohub,2013-06-05 03:05:00,
2013-06-04 21:10:00,51.3,28.6,17.73,ENE,74,3.0,8.0,24,-99.99,,,-99.99,meteohub,2013-06-05 03:10:00,
2013-06-04 21:15:00,50.9,28.6,17.73,ENE,65,3.0,8.0,24,-99.99,,,-99.99,meteohub,2013-06-05 03:15:00,
2013-06-04 21:20:00,50.4,28.6,17.73,NE,43,0.0,5.0,24,-99.99,,,-99.99,meteohub,2013-06-05 03:20:00,
2013-06-04 21:25:00,50.2,28.8,17.73,NE,52,4.0,5.0,24,-99.99,,,-99.99,meteohub,2013-06-05 03:25:00,
2013-06-04 21:30:00,50.2,28.8,17.73,NNE,28,3.0,5.0,24,-99.99,,,-99.99,meteohub,2013-06-05 03:30:00,
2013-06-04 21:37:00,50.2,28.9,17.73,NE,39,5.0,5.0,24,-99.99,,,-99.99,meteohub,2013-06-05 03:37:00,
2013-06-04 21:42:00,50.2,29.1,17.73,NW,304,6.0,6.0,24,-99.99,,,-99.99,meteohub,2013-06-05 03:42:00,
2013-06-04 21:47:00,50.2,29.3,17.73,NE,52,3.0,8.0,24,-99.99,,,-99.99,meteohub,2013-06-05 03:47:00,
2013-06-04 21:52:00,49.6,29.5,17.73,ENE,58,6.0,8.0,24,-99.99,,,-99.99,meteohub,2013-06-05 03:52:00,
2013-06-04 21:57:00,49.1,29.8,17.73,NE,50,3.0,8.0,24,-99.99,,,-99.99,meteohub,2013-06-05 03:57:00,
2013-06-04 22:01:00,49.1,29.8,17.73,NE,54,0.0,8.0,24,-99.99,,,-99.99,meteohub,2013-06-05 04:01:00,
2013-06-04 22:02:00,48.9,29.8,17.73,NE,54,0.0,8.0,24,-99.99,,,-99.99,meteohub,2013-06-05 04:02:00,
2013-06-04 22:03:00,48.9,30.0,17.73,NE,54,0.0,8.0,24,-99.99,,,-99.99,meteohub,2013-06-05 04:03:00,
2013-06-04 22:08:00,48.6,30.2,17.73,NNW,344,2.0,6.0,24,-99.99,,,-99.99,meteohub,2013-06-05 04:08:00,
2013-06-04 22:10:00,48.4,30.2,17.73,North,353,3.0,6.0,24,-99.99,,,-99.99,meteohub,2013-06-05 04:10:00,
2013-06-04 22:15:00,48.0,30.4,17.73,SE,137,3.0,4.0,24,-99.99,,,-99.99,meteohub,2013-06-05 04:15:00,
2013-06-04 22:20:00,48.0,30.4,17.73,NE,39,4.0,6.0,24,-99.99,,,-99.99,meteohub,2013-06-05 04:20:00,
2013-06-04 22:25:00,47.8,30.4,17.73,NE,45,5.0,6.0,24,-99.99,,,-99.99,meteohub,2013-06-05 04:25:00,
2013-06-04 22:31:00,47.5,30.4,17.73,ENE,67,3.0,6.0,24,-99.99,,,-99.99,meteohub,2013-06-05 04:31:00,
2013-06-04 22:37:00,47.1,30.4,17.73,ENE,61,3.0,5.0,24,-99.99,,,-99.99,meteohub,2013-06-05 04:37:00,
2013-06-04 22:42:00,46.8,30.4,17.73,ENE,60,0.0,5.0,24,-99.99,,,-99.99,meteohub,2013-06-05 04:42:00,
2013-06-04 22:47:00,46.2,30.4,17.73,NE,49,3.0,5.0,24,-99.99,,,-99.99,meteohub,2013-06-05 04:47:00,
2013-06-04 22:52:00,45.9,30.4,17.73,NNE,14,3.0,3.0,24,-99.99,,,-99.99,meteohub,2013-06-05 04:52:00,
2013-06-04 22:57:00,45.7,30.2,17.73,NNE,27,4.0,4.0,24,-99.99,,,-99.99,meteohub,2013-06-05 04:57:00,
2013-06-04 23:02:00,46.0,30.2,17.73,East,100,4.0,4.0,24,-99.99,,,-99.99,meteohub,2013-06-05 05:02:00,
2013-06-04 23:07:00,46.8,30.0,17.73,NNW,348,6.0,6.0,24,-99.99,,,-99.99,meteohub,2013-06-05 05:07:00,
2013-06-04 23:12:00,47.3,29.8,17.73,NNW,341,6.0,6.0,24,-99.99,,,-99.99,meteohub,2013-06-05 05:12:00,
2013-06-04 23:17:00,47.3,29.7,17.73,North,0,6.0,8.0,24,-99.99,,,-99.99,meteohub,2013-06-05 05:17:00,
2013-06-04 23:22:00,47.5,29.7,17.73,East,82,3.0,8.0,24,-99.99,,,-99.99,meteohub,2013-06-05 05:22:00,
2013-06-04 23:27:00,47.5,29.5,17.73,NE,49,9.0,9.0,24,-99.99,,,-99.99,meteohub,2013-06-05 05:27:00,
2013-06-04 23:32:00,46.2,29.5,17.73,NE,47,5.0,10.0,24,-99.99,,,-99.99,meteohub,2013-06-05 05:32:00,
2013-06-04 23:37:00,45.7,29.3,17.73,NNW,329,2.0,10.0,24,-99.99,,,-99.99,meteohub,2013-06-05 05:37:00,
2013-06-04 23:42:00,45.1,29.3,17.73,SSE,167,3.0,10.0,24,-99.99,,,-99.99,meteohub,2013-06-05 05:42:00,
2013-06-04 23:47:00,44.8,29.1,17.73,NNW,343,2.0,8.0,24,-99.99,,,-99.99,meteohub,2013-06-05 05:47:00,
2013-06-04 23:52:00,44.6,28.9,17.73,North,10,3.0,4.0,24,-99.99,,,-99.99,meteohub,2013-06-05 05:52:00,
2013-06-04 23:58:00,44.2,28.9,17.73,ESE,105,3.0,4.0,24,-99.99,,,-99.99,meteohub,2013-06-05 05:58:00,